EW0158 Weather Reports


time (UTC)temp
C
wind
direction
speed
KPH
gust
KPH
rain 1hr
cm
rain 24hr
cm
rain mn
cm
humidity
%
barometer
mb
20260906232015 29 157 8.0 16.1 0.00 0.00 0.00 58 1014.2
20260906231015 28 180 8.0 17.7 0.00 0.00 0.00 60 1014.3
20260906230015 28 180 8.0 16.1 0.00 0.00 0.00 60 1014.2
20260906225015 28 180 9.7 19.3 0.00 0.00 0.00 60 1014.3
20260906224015 28 180 9.7 19.3 0.00 0.00 0.00 61 1014.5
20260906223015 28 180 8.0 17.7 0.00 0.00 0.00 61 1014.7
20260906222015 28 180 9.7 17.7 0.00 0.00 0.00 60 1014.9
20260906221015 28 180 12.9 22.5 0.00 0.00 0.00 61 1014.9
20260906220015 28 180 8.0 16.1 0.00 0.00 0.00 60 1014.9
20260906215015 28 157 12.9 20.9 0.00 0.00 0.00 58 1015.0
20260906214015 29 135 9.7 17.7 0.00 0.00 0.00 57 1015.2
20260906213015 30 112 9.7 19.3 0.00 0.00 0.00 57 1015.2
20260906212015 30 112 9.7 22.5 0.00 0.00 0.00 54 1015.2
20260906211015 30 90 16.1 22.5 0.00 0.00 0.00 53 1015.1
20260906210015 30 112 12.9 24.1 0.00 0.00 0.00 55 1015.1
20260906205015 30 90 14.5 22.5 0.00 0.00 0.00 54 1015.2
20260906204015 30 112 9.7 20.9 0.00 0.00 0.00 53 1015.5
20260906203015 30 112 8.0 14.5 0.00 0.00 0.00 52 1015.5
20260906202015 30 157 6.4 11.3 0.00 0.00 0.00 51 1015.6
20260906201015 31 180 4.8 11.3 0.00 0.00 0.00 50 1015.8
20260906200015 31 202 6.4 9.7 0.00 0.00 0.00 49 1015.6
20260906195015 31 135 3.2 6.4 0.00 0.00 0.00 50 1015.8
20260906194015 31 337 1.6 4.8 0.00 0.00 0.00 52 1015.7
20260906193015 31 67 9.7 17.7 0.00 0.00 0.00 51 1016.0
20260906192116 30 337 8.0 16.1 0.00 0.00 0.00 52 1016.0
20260906191015 31 315 16.1 24.1 0.00 0.00 0.00 50 1016.1
20260906190015 31 337 12.9 19.3 0.00 0.00 0.00 52 1016.3
20260906185015 30 337 12.9 20.9 0.00 0.00 0.00 54 1016.4
20260906184015 31 0 16.1 22.5 0.00 0.00 0.00 52 1016.6
20260906183015 30 45 16.1 24.1 0.00 0.00 0.00 51 1016.7
20260906182015 30 22 17.7 25.7 0.00 0.00 0.00 55 1016.6
20260906181015 30 67 17.7 25.7 0.00 0.00 0.00 52 1016.8
20260906180015 30 90 17.7 24.1 0.00 0.00 0.00 49 1017.0
20260906175015 30 90 9.7 17.7 0.00 0.00 0.00 49 1017.1
20260906174015 30 90 3.2 6.4 0.00 0.00 0.00 50 1017.0
20260906173016 31 112 6.4 16.1 0.00 0.00 0.00 49 1017.4
20260906172015 31 112 8.0 16.1 0.00 0.00 0.00 47 1017.5
20260906171116 31 202 11.3 19.3 0.00 0.00 0.00 48 1017.5
20260906170015 31 90 4.8 9.7 0.00 0.00 0.00 50 1017.7
20260906165015 30 135 6.4 12.9 0.00 0.00 0.00 49 1017.8
20260906164015 31 202 9.7 17.7 0.00 0.00 0.00 48 1017.9
20260906163015 30 202 9.7 16.1 0.00 0.00 0.00 50 1017.7
20260906162015 30 202 8.0 14.5 0.00 0.00 0.00 55 1017.4
20260906161015 30 202 8.0 12.9 0.00 0.00 0.00 55 1017.8
20260906160015 29 202 6.4 11.3 0.00 0.00 0.00 55 1017.6
20260906155016 28 202 6.4 12.9 0.00 0.00 0.00 59 1017.6
20260906154116 28 247 8.0 16.1 0.00 0.00 0.00 59 1017.3
20260906153015 28 180 9.7 19.3 0.00 0.00 0.00 61 1017.5
20260906152016 27 202 6.4 9.7 0.00 0.00 0.00 63 1017.3
20260906151015 27 202 8.0 16.1 0.00 0.00 0.00 65 1017.1
20260906150015 26 180 6.4 11.3 0.00 0.00 0.00 67 1017.0
20260906145015 27 202 9.7 16.1 0.00 0.00 0.00 67 1017.1
20260906144015 26 202 8.0 11.3 0.00 0.00 0.00 69 1017.0
20260906143016 26 202 9.7 17.7 0.00 0.00 0.00 70 1017.1
20260906142016 26 180 12.9 19.3 0.00 0.00 0.00 70 1017.1
20260906141015 25 202 12.9 20.9 0.00 0.00 0.00 71 1017.1
20260906140015 25 202 9.7 19.3 0.00 0.00 0.00 72 1016.9
20260906135016 25 180 6.4 11.3 0.00 0.00 0.00 73 1016.9
20260906134015 24 180 6.4 14.5 0.00 0.00 0.00 77 1016.8
20260906133015 23 180 4.8 9.7 0.00 0.00 0.00 77 1016.4
20260906132016 23 180 1.6 4.8 0.00 0.00 0.00 79 1016.3
20260906131015 22 180 1.6 3.2 0.00 0.00 0.00 81 1016.2
20260906130016 21 180 1.6 4.8 0.00 0.00 0.00 82 1016.1
20260906125016 21 180 1.6 3.2 0.00 0.00 0.00 83 1015.7
20260906123116 20 202 1.6 3.2 0.00 0.00 0.00 84 1015.5
20260906122015 20 157 1.6 1.6 0.00 0.00 0.00 83 1015.2
20260906121015 20 67 1.6 3.2 0.00 0.00 0.00 84 1015.0
20260906120016 20 45 3.2 3.2 0.00 0.00 0.00 83 1015.0
20260906115015 20 22 1.6 3.2 0.00 0.00 0.00 82 1015.1
20260906114015 21 90 1.6 3.2 0.00 0.00 0.00 80 1015.1
20260906113015 22 0.0 1.6 0.00 0.00 0.00 80 1015.2
20260906112015 22 180 1.6 3.2 0.00 0.00 0.00 80 1015.2
20260906111016 22 180 1.6 3.2 0.00 0.00 0.00 80 1015.0
20260906110016 22 180 1.6 3.2 0.00 0.00 0.00 80 1014.7
20260906105016 22 202 4.8 6.4 0.00 0.00 0.00 80 1014.6
20260906104016 21 180 4.8 6.4 0.00 0.00 0.00 80 1014.7
20260906103016 21 202 3.2 4.8 0.00 0.00 0.00 80 1015.0
20260906102015 21 180 1.6 3.2 0.00 0.00 0.00 80 1014.9
20260906101015 21 180 1.6 4.8 0.00 0.00 0.00 80 1014.9
20260906100016 21 202 4.8 6.4 0.00 0.00 0.00 80 1014.8
20260906095021 21 180 4.8 6.4 0.00 0.00 0.00 79 1014.9
20260906094016 21 180 3.2 4.8 0.00 0.00 0.00 79 1014.8
20260906093116 22 157 3.2 4.8 0.00 0.00 0.00 78 1015.0
20260906092116 22 157 3.2 6.4 0.00 0.00 0.00 78 1014.8
20260906090016 22 180 4.8 9.7 0.00 0.00 0.00 77 1015.3
20260906085016 22 180 4.8 9.7 0.00 0.00 0.00 76 1015.3
20260906084016 22 180 6.4 9.7 0.00 0.00 0.00 76 1015.4
20260906083016 22 180 8.0 11.3 0.00 0.00 0.00 76 1015.3
20260906081016 23 180 8.0 16.1 0.00 0.00 0.00 76 1015.4
20260906080016 23 180 4.8 8.0 0.00 0.00 0.00 75 1015.4
20260906075016 23 180 6.4 9.7 0.00 0.00 0.00 75 1015.6
20260906073016 23 180 6.4 14.5 0.00 0.00 0.00 73 1016.0
20260906072016 23 180 6.4 11.3 0.00 0.00 0.00 73 1016.2
20260906071016 23 180 4.8 9.7 0.00 0.00 0.00 73 1016.0
20260906070016 23 180 6.4 11.3 0.00 0.00 0.00 72 1016.2
20260906065016 24 180 9.7 16.1 0.00 0.00 0.00 71 1016.1
20260906064116 24 180 8.0 12.9 0.00 0.00 0.00 70 1016.2
20260906063016 24 180 9.7 14.5 0.00 0.00 0.00 69 1016.4
20260906062016 25 180 8.0 20.9 0.00 0.00 0.00 69 1016.5
20260906061016 25 180 8.0 14.5 0.00 0.00 0.00 68 1016.7
20260906060016 25 157 6.4 14.5 0.00 0.00 0.00 68 1016.5
20260906055016 25 180 8.0 17.7 0.00 0.00 0.00 67 1016.3
20260906054016 25 180 8.0 19.3 0.00 0.00 0.00 66 1016.2
20260906053016 25 180 9.7 17.7 0.00 0.00 0.00 65 1016.5
20260906052016 26 180 9.7 19.3 0.00 0.00 0.00 64 1016.2
20260906051016 26 180 11.3 20.9 0.00 0.00 0.00 63 1016.1
20260906050016 26 180 9.7 17.7 0.00 0.00 0.00 60 1016.1
20260906045016 26 180 16.1 32.2 0.00 0.00 0.00 61 1016.4
20260906044016 26 157 4.8 8.0 0.00 0.00 0.00 61 1015.9
20260906043016 26 180 3.2 6.4 0.00 0.00 0.00 61 1015.8
20260906042016 25 157 3.2 8.0 0.00 0.00 0.00 62 1015.9
20260906041015 25 157 3.2 4.8 0.00 0.00 0.00 62 1016.1
20260906040016 26 157 3.2 4.8 0.00 0.00 0.00 61 1015.8
20260906035015 26 135 3.2 8.0 0.00 0.00 0.00 60 1015.7
20260906034016 26 157 3.2 6.4 0.00 0.00 0.00 60 1015.8
20260906033016 26 180 3.2 8.0 0.00 0.00 0.00 60 1015.6
20260906032015 26 180 3.2 4.8 0.00 0.00 0.00 60 1015.8
20260906031016 26 157 3.2 4.8 0.00 0.00 0.00 60 1015.7
20260906030017 26 157 1.6 6.4 0.00 0.00 0.00 60 1015.4
20260906025017 26 135 3.2 6.4 0.00 0.00 0.00 60 1015.3
20260906024016 26 135 3.2 6.4 0.00 0.00 0.00 60 1014.6
20260906023016 26 135 3.2 4.8 0.00 0.00 0.00 59 1014.5
20260906022016 26 135 1.6 4.8 0.00 0.00 0.00 59 1014.3
20260906021021 27 135 1.6 3.2 0.00 0.00 0.00 59 1014.3
20260906020015 27 157 1.6 3.2 0.00 0.00 0.00 58 1014.1
20260906014016 28 135 1.6 4.8 0.00 0.00 0.00 56 1013.9
20260906013016 28 157 1.6 3.2 0.00 0.00 0.00 55 1013.9
20260906012016 28 135 1.6 4.8 0.00 0.00 0.00 54 1013.7
20260906011016 28 157 3.2 8.0 0.00 0.00 0.00 54 1013.7
20260906005016 30 135 3.2 8.0 0.00 0.00 0.00 55 1013.7
20260906004016 30 135 3.2 8.0 0.00 0.00 0.00 54 1013.7
20260906003016 30 180 3.2 6.4 0.00 0.00 0.00 54 1013.7
20260906001016 30 180 4.8 8.0 0.00 0.00 0.00 53 1013.4
20260906000016 30 180 8.0 16.1 0.00 0.00 0.00 52 1013.2
20260905235016 31 180 8.0 14.5 0.00 0.00 0.00 53 1013.3
20260905234016 30 202 9.7 17.7 0.00 0.00 0.00 54 1013.5